QPF
0.00 0.00 0.00 0.00 0.00 0.00 0.00 0.00 0.00 0.00 0.00 0.00 0.00 0.00 0.00 0.00 0.00 0.00 0.00 0.00 0.00 0.00 0.00 0.00 0.00 0.00 0.00 0.00 0.00 0.00 0.00 0.00 0.00 0.00 0.00 0.00 0.00 0.00 0.00 0.00 0.00 0.00 0.00 0.00 0.00 0.00 0.00 0.00 0.00
0.00 0.00 0.00 0.00 0.00 0.00 0.00 0.00 0.00 0.00 0.00 0.00 0.00 0.00 0.00 0.00 0.00 0.00 0.00 0.00 0.00 0.00 0.00 0.00 0.00 0.00 0.00 0.00 0.00 0.00 0.00 0.00 0.00 0.00 0.00 0.00 0.00 0.00 0.00 0.00 0.00 0.00 0.00 0.00 0.00 0.00 0.00 0.00 0.00
0.00 0.00 0.00 0.00 0.00 0.00 0.00 0.00 0.00 0.00 0.00 0.00 0.00 0.00 0.00 0.00 0.00 0.00 0.00 0.00 0.00 0.00 0.00 0.00 0.00 0.00 0.00 0.00 0.00 0.00 0.00 0.00 0.00 0.00 0.00 0.00 0.00 0.00 0.00 0.00 0.00 0.00 0.00 0.00 0.00 0.00 0.00 0.00 0.00
0.00 0.00 0.00 0.00 0.00 0.00 0.00 0.00 0.00 0.00 0.00 0.00 0.00 0.00 0.00 0.00 0.00 0.00 0.00 0.00 0.00 0.00 0.00 0.00 0.00 0.00 0.00 0.00 0.00 0.00 0.00 0.00 0.00 0.00 0.00 0.00 0.00 0.00 0.00 0.00 0.00 0.00 0.00 0.00 0.00 0.00 0.00 0.00 0.00
0.00 0.00 0.00 0.00 0.00 0.00 0.00 0.00 0.00 0.00 0.00 0.00 0.00 0.00 0.00 0.00 0.00 0.00 0.00 0.00 0.00 0.00 0.00 0.00 0.00 0.00 0.00 0.00 0.00 0.00 0.00 0.00 0.00 0.00 0.00 0.00 0.00 0.00 0.00 0.00 0.00 0.00 0.00 0.00 0.00 0.00 0.00 0.00 0.00
0.00 0.00 0.00 0.00 0.00 0.00 0.00 0.00 0.00 0.00 0.00 0.00 0.00 0.00 0.00 0.00 0.00 0.00 0.00 0.00 0.00 0.00 0.00 0.00 0.00 0.00 0.00 0.00 0.00 0.00 0.00 0.00 0.00 0.00 0.00 0.00 0.00 0.00 0.00 0.00 0.00 0.00 0.00 0.00 0.00 0.00 0.00 0.00 0.00
0.00 0.00 0.00 0.00 0.00 0.00 0.00 0.00 0.00 0.00 0.00 0.00 0.00 0.00 0.00 0.00 0.00 0.00 0.00 0.00 0.00 0.00 0.00 0.00 0.00 0.00 0.00 0.00 0.00 0.00 0.00 0.00 0.00 0.00 0.00 0.00 0.00 0.00 0.00 0.00 0.00 0.00 0.00 0.00 0.00 0.00 0.00 0.00 0.00
0.00 0.00 0.00 0.00 0.00 0.00 0.00 0.00 0.00 0.00 0.00 0.00 0.00 0.00 0.00 0.00 0.00 0.00 0.00 0.00 0.00 0.00 0.00 0.00 0.00 0.00 0.00 0.00 0.00 0.00 0.00 0.00 0.00 0.00 0.00 0.00 0.00 0.00 0.00 0.00 0.00 0.00 0.00 0.00 0.00 0.00 0.00 0.00 0.00
0.00 0.00 0.00 0.00 0.00 0.00 0.00 0.00 0.00 0.00 0.00 0.00 0.00 0.00 0.00 0.00 0.00 0.00 0.00 0.00 0.00 0.00 0.00 0.00 0.00 0.00 0.00 0.00 0.00 0.00 0.00 0.00 0.00 0.00 0.00 0.00 0.00 0.00 0.00 0.00 0.00 0.00 0.00 0.00 0.00 0.00 0.00 0.00 0.00
0.00 0.00 0.00 0.00 0.00 0.00 0.00 0.00 0.00 0.00 0.00 0.00 0.00 0.00 0.00 0.00 0.00 0.00 0.00 0.00 0.00 0.00 0.00 0.00 0.00 0.00 0.00 0.00 0.00 0.00 0.00 0.00 0.00 0.00 0.00 0.00 0.00 0.00 0.00 0.00 0.00 0.00 0.00 0.00 0.00 0.00 0.00 0.00 0.00
0.00 0.00 0.00 0.00 0.00 0.00 0.00 0.00 0.00 0.00 0.00 0.00 0.00 0.00 0.00 0.00 0.00 0.00 0.00 0.00 0.00 0.00 0.00 0.00 0.00 0.00 0.00 0.00 0.00 0.00 0.00 0.00 0.00 0.00 0.00 0.00 0.00 0.00 0.00 0.00 0.00 0.00 0.00 0.00 0.00 0.00 0.00 0.00 0.00
0.00 0.00 0.00 0.00 0.00 0.00 0.00 0.00 0.00 0.00 0.00 0.00 0.00 0.00 0.00 0.00 0.00 0.00 0.00 0.00 0.00 0.00 0.00 0.00 0.00 0.00 0.00 0.00 0.00 0.00 0.00 0.00 0.00 0.00 0.00 0.00 0.00 0.00 0.00 0.00 0.00 0.00 0.00 0.00 0.00 0.00 0.00 0.00 0.00
0.00 0.00 0.00 0.00 0.00 0.00 0.00 0.00 0.00 0.00 0.00 0.00 0.00 0.00 0.00 0.00 0.00 0.00 0.00 0.00 0.00 0.00 0.00 0.00 0.00 0.00 0.00 0.00 0.00 0.00 0.00 0.00 0.00 0.00 0.00 0.00 0.00 0.00 0.00 0.00 0.00 0.00 0.00 0.00 0.00 0.00 0.00 0.00 0.00
0.00 0.00 0.00 0.00 0.00 0.00 0.00 0.00 0.00 0.00 0.00 0.00 0.00 0.00 0.00 0.00 0.00 0.00 0.00 0.00 0.00 0.00 0.00 0.00 0.00 0.00 0.00 0.00 0.00 0.00 0.00 0.00 0.00 0.00 0.00 0.00 0.00 0.00 0.00 0.00 0.00 0.00 0.00 0.00 0.00 0.00 0.00 0.00 0.00
0.00 0.00 0.00 0.00 0.00 0.00 0.00 0.00 0.00 0.00 0.00 0.00 0.00 0.00 0.00 0.00 0.00 0.00 0.00 0.00 0.00 0.00 0.00 0.00 0.00 0.00 0.00 0.00 0.00 0.00 0.00 0.00 0.00 0.00 0.00 0.00 0.00 0.00 0.00 0.00 0.00 0.00 0.00 0.00 0.00 0.00 0.00 0.00 0.00
0.00 0.00 0.00 0.00 0.00 0.00 0.00 0.00 0.00 0.00 0.00 0.00 0.00 0.00 0.00 0.00 0.00 0.00 0.00 0.00 0.00 0.00 0.00 0.00 0.00 0.00 0.00 0.00 0.00 0.00 0.00 0.00 0.00 0.00 0.00 0.00 0.00 0.00 0.00 0.00 0.00 0.00 0.00 0.00 0.00 0.00 0.00 0.00 0.00
0.00 0.00 0.00 0.00 0.00 0.00 0.00 0.00 0.00 0.00 0.00 0.00 0.00 0.00 0.00 0.00 0.00 0.00 0.00 0.00 0.00 0.00 0.00 0.00 0.00 0.00 0.00 0.00 0.00 0.00 0.00 0.00 0.00 0.00 0.00 0.00 0.00 0.00 0.00 0.00 0.00 0.00 0.00 0.00 0.00 0.00 0.00 0.00 0.00
0.00 0.00 0.00 0.00 0.00 0.00 0.00 0.00 0.00 0.00 0.00 0.00 0.00 0.00 0.00 0.00 0.00 0.00 0.00 0.00 0.00 0.00 0.00 0.00 0.00 0.00 0.00 0.00 0.00 0.00 0.00 0.00 0.00 0.00 0.01 0.01 0.00 0.01 0.00 0.00 0.00 0.00 0.00 0.00 0.00 0.00 0.00 0.00 0.00
0.00 0.00 0.00 0.00 0.00 0.00 0.00 0.00 0.00 0.00 0.00 0.00 0.00 0.00 0.00 0.00 0.00 0.00 0.00 0.00 0.00 0.00 0.00 0.00 0.00 0.00 0.00 0.00 0.00 0.00 0.00 0.00 0.01 0.02 0.02 0.02 0.01 0.00 0.00 0.00 0.00 0.00 0.00 0.00 0.00 0.00 0.00 0.00 0.00
0.00 0.00 0.00 0.00 0.00 0.00 0.00 0.00 0.00 0.00 0.00 0.00 0.00 0.00 0.00 0.00 0.00 0.00 0.00 0.00 0.00 0.00 0.00 0.00 0.00 0.00 0.00 0.00 0.00 0.00 0.00 0.01 0.04 0.08 0.05 0.02 0.00 0.00 0.00 0.00 0.00 0.00 0.00 0.00 0.00 0.00 0.00 0.00 0.00
0.00 0.00 0.00 0.00 0.00 0.00 0.00 0.00 0.00 0.00 0.00 0.00 0.00 0.00 0.00 0.00 0.00 0.00 0.00 0.00 0.00 0.00 0.00 0.00 0.00 0.00 0.00 0.00 0.00 0.00 0.00 0.02 0.05 0.04 0.01 0.00 0.00 0.00 0.00 0.00 0.00 0.00 0.00 0.00 0.00 0.00 0.00 0.00 0.00
0.00 0.00 0.00 0.00 0.00 0.00 0.00 0.00 0.00 0.00 0.00 0.00 0.00 0.00 0.00 0.00 0.00 0.00 0.01 0.00 0.00 0.00 0.00 0.00 0.00 0.00 0.00 0.00 0.00 0.01 0.04 0.05 0.03 0.00 0.00 0.00 0.00 0.00 0.00 0.00 0.00 0.00 0.00 0.00 0.00 0.00 0.00 0.00 0.00
0.00 0.00 0.00 0.00 0.00 0.00 0.00 0.00 0.00 0.00 0.00 0.00 0.00 0.00 0.00 0.00 0.00 0.00 0.00 0.00 0.00 0.00 0.00 0.00 0.00 0.00 0.00 0.00 0.00 0.02 0.02 0.00 0.00 0.00 0.00 0.00 0.00 0.00 0.00 0.00 0.00 0.00 0.00 0.00 0.00 0.00 0.00 0.00 0.00
0.00 0.00 0.00 0.00 0.00 0.00 0.00 0.00 0.00 0.00 0.00 0.00 0.00 0.00 0.00 0.00 0.00 0.00 0.00 0.00 0.00 0.00 0.00 0.00 0.00 0.00 0.00 0.00 0.00 0.00 0.00 0.00 0.00 0.00 0.00 0.00 0.00 0.00 0.00 0.00 0.00 0.00 0.00 0.00 0.00 0.00 0.00 0.00 0.00
0.00 0.00 0.00 0.00 0.00 0.00 0.00 0.00 0.00 0.00 0.00 0.00 0.00 0.00 0.00 0.00 0.00 0.00 0.00 0.00 0.00 0.00 0.00 0.00 0.00 0.00 0.00 0.00 0.00 0.00 0.00 0.00 0.00 0.00 0.00 0.00 0.00 0.00 0.00 0.00 0.00 0.00 0.00 0.00 0.00 0.00 0.00 0.00 0.00
0.00 0.00 0.00 0.00 0.00 0.00 0.00 0.00 0.00 0.00 0.00 0.00 0.00 0.00 0.00 0.00 0.00 0.00 0.00 0.00 0.00 0.00 0.00 0.00 0.00 0.00 0.00 0.00 0.00 0.00 0.00 0.00 0.00 0.00 0.00 0.00 0.00 0.00 0.00 0.00 0.00 0.00 0.00 0.00 0.00 0.00 0.00 0.00 0.00
0.00 0.00 0.00 0.00 0.00 0.00 0.00 0.00 0.00 0.00 0.00 0.00 0.00 0.00 0.00 0.00 0.00 0.00 0.00 0.00 0.00 0.00 0.00 0.00 0.00 0.00 0.00 0.00 0.00 0.00 0.00 0.00 0.00 0.00 0.00 0.00 0.00 0.00 0.00 0.00 0.00 0.00 0.00 0.00 0.00 0.00 0.00 0.00 0.00
0.00 0.00 0.00 0.00 0.00 0.00 0.00 0.00 0.00 0.00 0.00 0.00 0.00 0.00 0.00 0.00 0.00 0.00 0.00 0.00 0.00 0.00 0.00 0.00 0.00 0.00 0.00 0.00 0.00 0.00 0.00 0.00 0.00 0.00 0.00 0.00 0.00 0.00 0.00 0.00 0.00 0.00 0.00 0.00 0.00 0.00 0.00 0.00 0.00
0.00 0.00 0.00 0.00 0.00 0.00 0.00 0.00 0.00 0.00 0.00 0.00 0.00 0.00 0.00 0.00 0.00 0.00 0.00 0.00 0.00 0.00 0.00 0.00 0.00 0.00 0.00 0.00 0.00 0.00 0.00 0.00 0.00 0.00 0.00 0.00 0.00 0.00 0.00 0.00 0.00 0.00 0.00 0.00 0.00 0.00 0.00 0.00 0.00
0.00 0.00 0.00 0.00 0.00 0.00 0.00 0.00 0.00 0.00 0.00 0.00 0.00 0.00 0.00 0.00 0.00 0.00 0.00 0.00 0.00 0.00 0.00 0.00 0.00 0.00 0.00 0.00 0.00 0.00 0.00 0.00 0.00 0.00 0.00 0.00 0.00 0.00 0.00 0.00 0.00 0.00 0.00 0.00 0.00 0.00 0.00 0.00 0.00
MSLP
1012.89 1013.05 1013.50 1013.88 1014.73 1014.88 1015.23 1015.20 1014.36 1013.62 1012.98 1012.26 1012.10 1012.36 1012.98 1013.36 1013.91 1014.85 1014.19 1014.17 1014.25 1014.81 1015.05 1015.28 1015.57 1015.91 1016.44 1016.74 1016.98 1017.26 1017.47 1017.71 1017.91 1018.11 1018.19 1018.29 1018.34 1018.37 1018.49 1018.53 1018.58 1018.61 1018.58 1018.59 1018.65 1018.71 1018.68 1018.70 1018.74
1012.71 1013.00 1013.54 1014.08 1014.98 1015.48 1015.59 1014.69 1013.95 1013.02 1012.35 1011.96 1011.88 1012.01 1012.46 1013.19 1013.65 1014.32 1014.44 1014.47 1014.34 1014.54 1015.03 1015.35 1015.70 1016.05 1016.58 1016.87 1017.15 1017.42 1017.60 1017.82 1017.95 1018.14 1018.25 1018.37 1018.42 1018.50 1018.60 1018.71 1018.73 1018.77 1018.75 1018.73 1018.73 1018.82 1018.83 1018.75 1018.68
1012.53 1012.73 1013.78 1014.64 1015.69 1015.42 1014.82 1014.15 1013.42 1012.76 1012.19 1011.84 1011.77 1011.70 1012.54 1013.31 1013.62 1014.05 1014.22 1014.46 1014.45 1014.68 1015.17 1015.54 1015.84 1016.26 1016.66 1016.95 1017.18 1017.41 1017.62 1017.80 1017.94 1018.16 1018.37 1018.49 1018.54 1018.69 1018.75 1018.80 1018.83 1018.85 1018.91 1018.92 1018.94 1018.96 1018.90 1018.80 1018.71
1012.69 1013.29 1014.76 1015.00 1015.35 1014.53 1014.01 1013.78 1013.61 1012.83 1012.30 1012.02 1012.03 1012.26 1012.34 1012.77 1013.30 1013.63 1014.31 1014.46 1014.75 1015.03 1015.39 1015.61 1015.90 1016.27 1016.57 1016.82 1017.03 1017.20 1017.42 1017.74 1017.96 1018.16 1018.34 1018.46 1018.47 1018.58 1018.69 1018.72 1018.77 1018.88 1018.98 1018.99 1018.98 1018.98 1018.99 1018.92 1018.81
1013.36 1014.35 1015.25 1015.54 1015.07 1014.17 1013.63 1013.66 1013.19 1012.72 1012.41 1012.14 1012.12 1012.65 1012.44 1012.90 1013.21 1013.62 1014.19 1014.72 1014.83 1015.27 1015.56 1015.80 1015.83 1016.03 1016.28 1016.57 1016.85 1017.09 1017.40 1017.72 1017.95 1018.07 1018.20 1018.31 1018.43 1018.50 1018.60 1018.67 1018.83 1018.90 1018.96 1019.03 1019.03 1018.99 1018.98 1018.99 1018.94
1014.08 1014.98 1015.66 1015.82 1014.77 1013.87 1013.22 1013.06 1012.93 1012.59 1011.37 1011.54 1011.86 1012.40 1012.67 1012.79 1013.32 1013.75 1013.97 1014.52 1014.78 1015.23 1015.51 1015.64 1015.66 1015.97 1016.42 1016.74 1017.01 1017.27 1017.59 1017.77 1017.85 1017.98 1018.11 1018.25 1018.41 1018.51 1018.63 1018.75 1018.83 1018.91 1019.03 1019.12 1019.08 1019.07 1019.05 1018.99 1018.94
1014.13 1015.29 1015.73 1015.44 1014.83 1013.77 1013.15 1012.75 1012.56 1012.09 1011.93 1011.84 1011.75 1012.09 1012.77 1013.07 1013.07 1013.45 1014.05 1014.74 1015.25 1015.47 1015.52 1015.81 1015.93 1016.16 1016.57 1016.78 1016.93 1017.08 1017.27 1017.58 1017.83 1018.07 1018.31 1018.43 1018.52 1018.61 1018.71 1018.81 1018.93 1019.01 1019.07 1019.08 1019.07 1019.03 1019.00 1019.04 1019.03
1013.90 1014.86 1015.52 1014.98 1014.50 1013.69 1013.01 1012.91 1012.41 1012.08 1011.40 1011.57 1011.55 1011.65 1012.31 1012.51 1013.09 1013.87 1014.50 1014.98 1015.31 1015.80 1015.84 1015.92 1016.13 1016.28 1016.42 1016.63 1016.75 1017.01 1017.36 1017.61 1017.74 1018.03 1018.23 1018.41 1018.58 1018.69 1018.76 1018.85 1018.91 1019.00 1019.03 1019.02 1019.07 1019.09 1019.10 1019.16 1019.12
1013.69 1014.63 1015.05 1014.33 1014.18 1013.22 1013.00 1012.98 1012.30 1011.72 1011.27 1011.36 1011.26 1011.02 1011.02 1012.25 1013.27 1014.31 1015.32 1015.90 1016.04 1016.30 1016.36 1016.31 1016.39 1016.49 1016.59 1016.64 1016.86 1017.11 1017.27 1017.57 1017.93 1018.17 1018.41 1018.52 1018.59 1018.71 1018.87 1018.93 1018.91 1018.91 1018.99 1019.07 1019.12 1019.20 1019.25 1019.28 1019.25
1013.57 1014.27 1013.86 1013.10 1012.80 1012.60 1012.61 1012.64 1012.20 1012.00 1011.26 1010.93 1011.13 1011.56 1011.73 1012.35 1013.21 1014.08 1014.88 1015.23 1015.45 1015.75 1015.98 1016.01 1016.04 1016.20 1016.56 1016.73 1016.82 1016.98 1017.21 1017.47 1017.75 1018.06 1018.29 1018.54 1018.64 1018.76 1018.80 1018.87 1018.90 1019.03 1019.11 1019.19 1019.30 1019.37 1019.47 1019.50 1019.57
1013.28 1013.18 1012.70 1012.29 1011.86 1011.91 1012.28 1012.46 1012.17 1012.07 1011.70 1010.47 1010.45 1011.33 1011.93 1012.79 1013.26 1013.44 1013.72 1013.90 1014.05 1014.99 1015.83 1015.83 1015.98 1016.14 1016.34 1016.41 1016.78 1016.98 1017.13 1017.31 1017.60 1017.88 1018.06 1018.13 1018.69 1018.88 1018.97 1019.13 1019.16 1019.27 1019.44 1019.53 1019.59 1019.73 1019.85 1019.86 1019.74
1012.95 1012.14 1012.25 1011.74 1011.45 1011.74 1012.11 1011.80 1011.91 1011.65 1010.51 1010.23 1010.29 1011.04 1011.93 1012.52 1012.86 1013.29 1013.32 1013.46 1014.11 1014.87 1015.31 1015.52 1015.67 1016.09 1016.17 1016.21 1016.27 1016.40 1016.86 1017.29 1017.65 1017.95 1018.13 1018.29 1018.58 1019.01 1019.32 1019.45 1019.63 1019.67 1019.70 1019.83 1019.95 1020.11 1020.17 1020.04 1019.87
1012.55 1011.82 1011.46 1011.16 1011.17 1011.16 1011.32 1011.17 1011.49 1010.73 1010.44 1010.47 1010.37 1011.10 1011.80 1012.36 1012.26 1012.83 1013.02 1013.31 1013.94 1014.34 1014.88 1015.18 1015.53 1015.76 1016.29 1016.73 1016.80 1017.00 1017.17 1017.33 1017.47 1017.59 1017.98 1018.32 1018.69 1019.06 1019.38 1019.72 1019.83 1019.91 1019.93 1020.01 1020.22 1020.38 1020.32 1020.23 1019.93
1011.94 1011.51 1011.04 1010.75 1010.93 1011.06 1011.20 1011.49 1011.53 1009.78 1010.60 1010.82 1011.22 1011.42 1011.60 1012.10 1011.83 1012.39 1012.88 1013.24 1013.59 1013.77 1013.98 1014.68 1014.87 1015.32 1016.07 1016.58 1016.99 1017.45 1017.78 1017.92 1018.12 1018.19 1018.21 1018.52 1018.91 1019.32 1019.67 1019.91 1020.04 1020.18 1020.38 1020.33 1020.36 1020.46 1020.35 1020.23 1019.84
1011.79 1011.64 1010.86 1010.45 1010.45 1010.80 1010.94 1011.51 1010.84 1009.45 1010.20 1010.72 1011.40 1011.61 1011.48 1011.76 1011.82 1011.53 1012.08 1012.53 1012.86 1013.19 1013.04 1013.77 1014.48 1015.03 1015.93 1016.63 1016.75 1017.02 1017.38 1018.01 1018.36 1018.56 1018.63 1018.71 1019.12 1019.37 1019.71 1019.99 1020.36 1020.42 1020.44 1020.35 1020.35 1020.48 1020.34 1020.29 1020.08
1012.26 1011.95 1011.64 1010.68 1010.50 1011.00 1011.22 1010.78 1009.62 1009.09 1010.02 1010.70 1011.05 1011.17 1011.15 1011.39 1011.17 1011.21 1011.58 1012.07 1012.69 1013.14 1013.39 1013.34 1014.16 1015.05 1015.86 1016.37 1016.70 1017.19 1017.38 1017.93 1018.40 1018.77 1019.05 1019.23 1019.48 1019.51 1019.86 1020.21 1020.42 1020.55 1020.41 1020.52 1020.56 1020.55 1020.51 1020.59 1020.24
1013.20 1012.68 1012.10 1011.07 1010.53 1010.93 1011.40 1010.87 1009.23 1008.95 1009.48 1010.42 1010.74 1010.73 1010.77 1011.25 1011.32 1011.33 1011.90 1012.22 1012.41 1012.72 1013.13 1013.49 1013.97 1014.91 1015.85 1016.47 1017.02 1017.44 1017.91 1018.24 1018.73 1019.03 1019.23 1019.55 1019.43 1019.69 1020.08 1020.18 1020.36 1020.41 1020.61 1020.75 1020.61 1020.62 1020.51 1020.53 1020.31
1013.50 1013.02 1012.40 1011.75 1011.13 1010.82 1011.12 1010.36 1009.49 1008.98 1009.14 1009.84 1010.22 1010.46 1010.72 1011.09 1011.54 1011.87 1012.37 1012.57 1012.47 1012.81 1013.37 1014.16 1014.41 1014.95 1015.83 1016.52 1017.25 1017.72 1018.24 1018.77 1019.10 1019.42 1019.66 1019.79 1019.72 1019.88 1020.02 1020.15 1020.31 1020.43 1020.61 1020.77 1020.74 1020.56 1020.56 1020.61 1020.31
1013.07 1013.00 1012.64 1011.69 1011.04 1011.09 1010.57 1010.24 1009.31 1008.98 1009.27 1009.87 1010.40 1010.44 1010.82 1011.52 1011.96 1012.54 1012.82 1012.94 1012.87 1013.27 1013.64 1014.08 1014.73 1015.14 1015.70 1016.54 1017.51 1018.16 1018.74 1019.38 1019.72 1019.81 1019.91 1019.86 1020.14 1020.19 1020.17 1020.10 1020.49 1020.50 1020.53 1021.01 1020.78 1020.79 1020.88 1020.65 1020.41
1012.81 1012.76 1012.48 1011.41 1010.98 1011.21 1010.38 1010.28 1010.01 1009.83 1010.04 1009.93 1009.80 1010.85 1011.45 1012.11 1012.93 1013.62 1013.68 1013.61 1013.68 1014.11 1014.22 1014.23 1014.79 1015.33 1015.89 1016.41 1017.18 1017.68 1018.66 1019.44 1019.65 1019.71 1019.78 1019.98 1020.21 1020.25 1020.16 1020.25 1020.55 1020.56 1020.70 1020.89 1020.92 1021.02 1021.03 1020.88 1020.43
1012.38 1012.48 1012.40 1012.16 1011.31 1010.60 1010.67 1010.68 1010.34 1010.18 1010.36 1010.24 1010.46 1011.03 1011.71 1012.15 1012.96 1013.81 1014.04 1014.25 1014.35 1014.71 1014.39 1014.71 1015.30 1015.73 1016.24 1016.61 1017.20 1017.95 1018.65 1019.22 1019.70 1020.03 1020.14 1020.35 1020.57 1020.51 1020.21 1020.29 1020.65 1020.66 1020.78 1021.07 1021.07 1020.98 1020.88 1020.76 1020.26
1012.03 1011.56 1011.79 1011.93 1012.10 1011.90 1011.42 1011.73 1010.97 1010.88 1010.68 1010.64 1011.01 1011.36 1011.68 1012.27 1013.15 1013.90 1014.31 1014.68 1015.02 1014.96 1014.96 1015.29 1015.75 1016.13 1016.64 1016.90 1017.34 1017.73 1018.64 1019.58 1020.06 1020.36 1020.76 1021.00 1020.77 1020.56 1020.46 1020.69 1020.67 1020.74 1020.98 1021.02 1020.84 1020.73 1020.65 1020.54 1020.32
1011.36 1011.16 1011.62 1011.91 1012.45 1012.52 1012.12 1012.28 1011.19 1011.30 1010.90 1010.37 1010.95 1011.77 1012.03 1012.44 1013.04 1013.88 1014.53 1015.07 1015.53 1015.49 1015.65 1015.87 1016.30 1016.69 1017.17 1017.46 1017.81 1018.40 1019.27 1019.95 1020.56 1020.77 1020.93 1021.08 1021.02 1020.79 1020.76 1020.97 1020.85 1020.91 1020.86 1020.90 1020.73 1020.46 1020.32 1020.41 1020.46
1010.84 1011.34 1012.01 1012.74 1013.20 1013.47 1012.59 1012.62 1012.10 1011.54 1010.85 1010.50 1010.64 1011.75 1012.49 1013.19 1013.54 1014.11 1014.74 1015.25 1015.87 1016.15 1016.42 1016.72 1017.15 1017.83 1017.97 1018.24 1018.62 1019.06 1019.64 1020.25 1020.49 1020.97 1021.21 1021.18 1021.08 1020.92 1020.81 1021.04 1020.75 1020.90 1020.70 1020.44 1020.21 1020.18 1020.21 1020.32 1020.41
1011.03 1012.47 1013.42 1014.11 1014.60 1014.16 1012.91 1012.92 1011.70 1010.46 1010.29 1010.40 1010.39 1011.59 1012.40 1013.28 1013.86 1014.32 1014.91 1015.58 1016.14 1016.52 1016.78 1017.14 1017.60 1018.33 1018.51 1018.81 1019.30 1019.47 1019.64 1020.03 1020.59 1020.98 1021.13 1021.00 1021.07 1021.14 1021.09 1020.92 1020.82 1020.50 1020.22 1020.17 1020.22 1020.30 1020.35 1020.41 1020.48
1011.12 1012.13 1013.48 1014.27 1014.98 1014.39 1013.51 1012.42 1010.76 1010.37 1010.45 1010.10 1010.42 1011.23 1012.29 1013.05 1013.73 1014.32 1015.09 1015.73 1016.10 1016.63 1017.08 1017.75 1017.87 1018.62 1018.99 1019.22 1019.46 1019.55 1019.71 1020.09 1020.62 1020.82 1020.99 1021.27 1021.17 1021.21 1020.86 1020.37 1020.45 1020.45 1020.59 1020.60 1020.55 1020.43 1020.43 1020.40 1020.39
1010.90 1011.82 1012.51 1013.81 1014.88 1014.79 1013.45 1011.96 1010.56 1010.36 1010.36 1010.62 1011.12 1011.57 1012.24 1012.83 1013.40 1014.14 1014.94 1015.65 1016.10 1016.61 1017.11 1017.48 1018.40 1019.10 1019.27 1019.51 1019.95 1019.94 1019.71 1020.17 1020.63 1020.95 1021.15 1021.08 1020.96 1020.48 1020.32 1020.65 1020.71 1020.69 1020.71 1020.67 1020.56 1020.44 1020.34 1020.33 1020.20
1010.00 1011.06 1012.51 1014.03 1014.97 1014.91 1013.77 1012.67 1011.42 1010.53 1010.44 1010.90 1011.46 1011.68 1012.06 1012.66 1013.38 1014.08 1014.92 1015.66 1016.32 1017.01 1016.81 1017.94 1018.81 1019.09 1019.46 1019.75 1019.86 1019.94 1019.93 1020.42 1020.80 1020.88 1020.86 1020.94 1020.61 1020.45 1020.68 1020.73 1020.71 1020.65 1020.56 1020.47 1020.49 1020.34 1020.23 1020.20 1020.03
1010.51 1011.11 1012.37 1013.59 1014.22 1014.43 1013.87 1012.64 1009.95 1009.53 1009.55 1010.02 1010.78 1011.07 1011.55 1012.26 1013.11 1013.87 1014.69 1015.49 1016.18 1016.82 1017.51 1018.33 1018.84 1019.20 1019.37 1019.71 1019.92 1019.91 1020.20 1020.55 1020.65 1020.62 1020.79 1020.83 1020.63 1020.69 1020.75 1020.71 1020.59 1020.48 1020.36 1020.27 1020.30 1020.13 1019.95 1019.93 1019.73
1009.73 1010.62 1011.85 1013.50 1014.02 1013.95 1013.20 1011.18 1009.33 1009.09 1009.08 1009.51 1010.09 1010.60 1011.33 1012.04 1012.74 1013.59 1014.55 1015.35 1016.07 1016.87 1017.74 1018.29 1018.96 1019.17 1019.26 1019.48 1019.82 1019.82 1020.05 1020.30 1020.57 1020.64 1020.65 1020.68 1020.61 1020.59 1020.62 1020.51 1020.37 1020.22 1020.03 1019.92 1019.91 1019.73 1019.51 1019.43 1019.19
Thickness
5810 5810 5807 5798 5768 5760 5745 5753 5767 5769 5776 5795 5799 5792 5780 5782 5770 5747 5790 5793 5793 5787 5783 5780 5779 5774 5769 5766 5763 5761 5760 5759 5757 5755 5755 5754 5754 5753 5751 5750 5749 5748 5747 5747 5745 5743 5743 5741 5739
5811 5809 5802 5783 5752 5736 5739 5763 5766 5777 5789 5797 5797 5794 5787 5776 5787 5781 5783 5789 5790 5788 5783 5781 5777 5773 5767 5764 5761 5759 5757 5756 5755 5753 5753 5752 5751 5750 5749 5747 5745 5744 5743 5743 5742 5740 5739 5738 5737
5811 5809 5787 5760 5737 5741 5746 5765 5772 5784 5794 5795 5791 5800 5789 5779 5786 5785 5790 5789 5789 5786 5782 5779 5776 5771 5767 5764 5762 5759 5757 5756 5754 5753 5751 5750 5749 5747 5745 5744 5743 5741 5740 5739 5738 5736 5736 5735 5735
5804 5795 5777 5752 5755 5766 5769 5772 5777 5786 5794 5796 5792 5781 5796 5801 5793 5796 5791 5788 5785 5782 5780 5778 5775 5771 5768 5766 5764 5762 5760 5757 5754 5753 5751 5749 5748 5747 5745 5743 5742 5740 5738 5736 5735 5734 5733 5732 5731
5794 5776 5747 5745 5750 5766 5776 5775 5781 5782 5787 5787 5791 5775 5785 5798 5799 5795 5791 5785 5783 5780 5777 5775 5775 5773 5771 5768 5766 5764 5760 5757 5755 5754 5752 5750 5749 5747 5745 5743 5741 5738 5736 5734 5732 5731 5729 5727 5726
5772 5765 5737 5732 5750 5770 5780 5784 5781 5781 5795 5795 5787 5783 5786 5799 5794 5793 5793 5785 5782 5779 5776 5775 5775 5772 5768 5766 5763 5761 5757 5756 5755 5754 5752 5751 5748 5746 5743 5740 5738 5735 5733 5730 5728 5726 5724 5722 5720
5764 5749 5740 5744 5747 5759 5777 5788 5784 5788 5787 5789 5795 5783 5787 5791 5798 5797 5791 5784 5776 5775 5775 5772 5772 5770 5766 5765 5763 5762 5761 5758 5755 5752 5749 5747 5744 5742 5740 5737 5734 5731 5728 5726 5724 5724 5721 5718 5715
5765 5754 5741 5744 5744 5755 5780 5783 5790 5789 5791 5802 5803 5783 5779 5796 5798 5791 5787 5782 5778 5773 5773 5772 5770 5768 5768 5766 5765 5763 5760 5757 5754 5751 5748 5746 5742 5739 5736 5734 5732 5728 5726 5723 5720 5718 5715 5712 5709
5772 5740 5731 5750 5745 5769 5778 5775 5792 5804 5799 5800 5802 5804 5810 5803 5796 5785 5776 5772 5770 5769 5768 5768 5767 5765 5764 5764 5763 5761 5759 5755 5750 5747 5744 5742 5740 5738 5734 5731 5729 5727 5723 5719 5715 5711 5708 5705 5703
5757 5737 5747 5767 5769 5773 5777 5778 5787 5792 5796 5799 5801 5805 5804 5800 5792 5783 5776 5774 5774 5770 5769 5770 5769 5768 5765 5762 5763 5761 5759 5757 5753 5749 5744 5739 5737 5735 5732 5729 5725 5721 5716 5712 5708 5704 5700 5697 5694
5756 5750 5767 5775 5780 5786 5778 5779 5790 5786 5784 5801 5801 5799 5798 5794 5789 5787 5786 5789 5787 5775 5769 5771 5771 5769 5768 5766 5762 5760 5759 5758 5754 5749 5745 5743 5734 5731 5728 5724 5720 5716 5710 5706 5701 5696 5692 5688 5685
5755 5769 5771 5780 5783 5781 5776 5789 5785 5787 5800 5810 5813 5805 5798 5793 5791 5788 5792 5793 5784 5775 5772 5772 5772 5768 5768 5768 5766 5764 5760 5756 5752 5746 5741 5739 5733 5725 5719 5715 5710 5706 5701 5696 5691 5686 5681 5679 5676
5754 5767 5776 5782 5783 5784 5788 5787 5788 5792 5806 5808 5810 5804 5798 5794 5798 5795 5797 5794 5786 5781 5776 5774 5773 5771 5764 5760 5758 5756 5754 5751 5747 5745 5738 5733 5727 5721 5715 5707 5701 5697 5693 5689 5683 5677 5673 5669 5665
5761 5768 5774 5782 5781 5780 5777 5780 5787 5804 5801 5797 5796 5795 5798 5795 5801 5797 5794 5790 5786 5785 5782 5777 5778 5773 5764 5758 5753 5748 5744 5740 5735 5733 5730 5725 5720 5713 5705 5700 5695 5689 5683 5680 5675 5668 5664 5660 5657
5765 5759 5768 5783 5783 5777 5781 5771 5778 5805 5798 5790 5787 5789 5796 5796 5801 5804 5799 5794 5793 5789 5792 5784 5778 5770 5762 5754 5751 5747 5741 5734 5730 5726 5722 5718 5712 5707 5700 5693 5686 5682 5676 5672 5667 5659 5656 5649 5644
5750 5747 5739 5772 5779 5773 5773 5755 5792 5808 5795 5785 5787 5791 5796 5798 5805 5808 5804 5799 5793 5789 5786 5789 5781 5770 5762 5754 5748 5742 5740 5733 5727 5721 5714 5708 5702 5699 5693 5686 5679 5673 5670 5663 5657 5652 5647 5639 5634
5724 5722 5736 5751 5771 5765 5762 5757 5791 5802 5795 5786 5787 5793 5797 5796 5800 5805 5801 5797 5794 5790 5786 5783 5779 5769 5758 5749 5743 5738 5732 5727 5721 5716 5709 5702 5699 5692 5685 5679 5673 5668 5661 5655 5650 5643 5637 5631 5625
5719 5724 5731 5734 5757 5759 5750 5759 5784 5796 5796 5791 5789 5793 5796 5794 5794 5796 5793 5792 5792 5786 5780 5773 5771 5765 5754 5746 5738 5732 5727 5720 5714 5707 5700 5693 5690 5684 5678 5673 5667 5662 5655 5646 5639 5634 5627 5620 5617
5733 5728 5725 5737 5752 5750 5750 5757 5779 5787 5791 5784 5783 5790 5794 5788 5790 5786 5786 5787 5785 5779 5773 5772 5765 5760 5753 5744 5733 5725 5717 5709 5702 5696 5689 5684 5677 5673 5670 5667 5659 5654 5647 5635 5631 5624 5616 5611 5606
5730 5726 5722 5740 5751 5745 5754 5758 5771 5779 5782 5785 5790 5784 5780 5780 5776 5773 5775 5778 5776 5770 5768 5769 5763 5755 5748 5742 5732 5725 5713 5703 5695 5688 5683 5677 5670 5666 5664 5659 5651 5644 5637 5627 5620 5613 5606 5599 5593
5727 5724 5724 5728 5740 5752 5752 5751 5761 5775 5778 5785 5786 5784 5779 5779 5773 5768 5769 5768 5767 5762 5765 5761 5754 5748 5742 5736 5728 5718 5707 5697 5687 5679 5674 5667 5661 5658 5657 5651 5642 5635 5626 5617 5609 5602 5596 5589 5583
5718 5737 5734 5733 5727 5710 5745 5711 5748 5755 5764 5775 5775 5774 5776 5775 5769 5765 5763 5760 5756 5757 5756 5752 5745 5739 5733 5728 5721 5712 5699 5687 5678 5671 5663 5657 5655 5652 5648 5639 5633 5624 5616 5608 5600 5593 5586 5579 5576
5724 5741 5736 5734 5718 5720 5729 5713 5741 5747 5760 5774 5771 5766 5770 5770 5767 5761 5757 5752 5749 5749 5746 5742 5737 5731 5723 5718 5711 5702 5689 5679 5668 5662 5658 5652 5648 5644 5638 5628 5624 5616 5608 5600 5592 5584 5578 5571 5565
5743 5736 5722 5710 5702 5687 5720 5713 5719 5737 5754 5770 5773 5765 5762 5759 5759 5756 5753 5748 5742 5739 5735 5732 5727 5717 5712 5707 5700 5691 5681 5670 5665 5657 5650 5645 5640 5635 5630 5621 5617 5607 5600 5592 5585 5578 5570 5564 5557
5731 5700 5672 5681 5677 5679 5715 5706 5722 5755 5761 5767 5775 5760 5760 5757 5751 5750 5746 5741 5736 5732 5729 5725 5718 5708 5703 5697 5689 5683 5676 5668 5659 5651 5644 5639 5633 5626 5621 5614 5606 5599 5593 5585 5577 5569 5563 5555 5548
5709 5701 5667 5669 5663 5687 5703 5697 5726 5750 5757 5768 5765 5759 5754 5751 5746 5744 5740 5735 5731 5727 5722 5714 5710 5701 5694 5688 5684 5678 5671 5663 5653 5645 5638 5629 5624 5617 5613 5609 5599 5591 5581 5573 5566 5560 5552 5546 5539
5710 5694 5711 5681 5677 5672 5689 5713 5743 5746 5749 5754 5750 5752 5749 5747 5746 5741 5736 5730 5726 5721 5717 5710 5700 5692 5687 5681 5674 5668 5664 5655 5645 5636 5628 5622 5616 5613 5608 5597 5588 5580 5571 5563 5556 5549 5543 5537 5532
5720 5716 5692 5669 5672 5668 5677 5693 5709 5735 5740 5743 5743 5744 5746 5743 5742 5737 5731 5725 5719 5713 5712 5702 5693 5687 5680 5674 5668 5660 5652 5643 5634 5627 5621 5615 5611 5606 5597 5587 5579 5571 5563 5554 5545 5539 5534 5529 5525
5698 5696 5688 5682 5668 5660 5661 5680 5732 5745 5748 5746 5744 5748 5747 5742 5738 5733 5728 5721 5714 5709 5702 5693 5686 5679 5674 5666 5658 5651 5642 5634 5626 5622 5617 5610 5604 5596 5587 5579 5572 5564 5557 5548 5538 5533 5529 5524 5520
5710 5699 5691 5661 5674 5665 5665 5678 5745 5746 5749 5747 5746 5749 5745 5741 5737 5731 5724 5717 5710 5702 5693 5686 5678 5673 5666 5660 5651 5644 5636 5629 5623 5618 5612 5603 5596 5587 5579 5573 5566 5559 5553 5545 5537 5531 5527 5522 5518